Weather History for K0VG - March, 2014

Change the Weather History Date:

Saturday, March 1, 2014

  Actual Average (KLOZ) Record (KLOZ)
Temperature  
Mean Temperature 48 °F 43 °F  
Max Temperature 64 °F 54 °F 77 °F (1976)
Min Temperature 32 °F 33 °F 11 °F (1960)
Degree Days  
Heating Degree Days 17 22  
Month to date heating degree days 22  
Since 1 July heating degree days 3298  
Cooling Degree Days 0 0  
Month to date cooling degree days 0  
Year to date cooling degree days 0  
Moisture  
Dew Point 18 °F    
Average Humidity 47    
Maximum Humidity 87    
Minimum Humidity 4    
Precipitation  
Precipitation 0.00 in 0.14 in 2.51 in (2007)
Month to date precipitation 0.14  
Year to date precipitation 7.39  
Sea Level Pressure  
Sea Level Pressure 30.21 in    
Wind  
Wind Speed 3 mph (West)    
Max Wind Speed 10 mph    
Max Gust Speed 16 mph    
Visibility 10 miles    
Events      
T = Trace of Precipitation, MM = Missing Value Source: NWS Daily Summary

Daily Weather History Graph

Daily Weather History Graph

Search for Another Location

Airport or City:

Trip Planner

Search our weather history database for the weather conditions in past years. The results will help you decide how hot, cold, wet, or windy it might be!

Date:

Astronomy

Mar. 01, 2014 Rise Set
Actual Time 7:03 AM EST 6:27 PM EST
Civil Twilight 6:37 AM EST 6:53 PM EST
Nautical Twilight 6:07 AM EST 7:23 PM EST
Astronomical Twilight 5:37 AM EST 7:53 PM EST
Moon 6:58 AM EST (3/1) 7:11 PM EST (3/1)
Length of Visible Light 12h 15m
Length of Day
11h 23m
New Moon, 0% of the Moon is Illuminated
Mar 1
New Moon
Mar 8
First Quarter
Mar 16
Full
Mar 23
Last Quarter
Mar 30
New

Hourly Weather History & Observations

Time (EST) Temp. Windchill Dew Point Humidity Pressure Visibility Wind Dir Wind Speed Gust Speed Precip Events Conditions
12:15 AM 32.0 °F - -126.4 °F 4% 30.16 in - Calm Calm - N/A   Overcast
12:43 AM 32.0 °F 24.2 °F 17.6 °F 55% 30.17 in 10.0 mi North 9.2 mph - N/A   Overcast
12:44 AM 32.0 °F 24.2 °F 17.6 °F 55% 30.17 in 10.0 mi North 9.2 mph - N/A   Overcast
12:55 AM - - - N/A% - 18.0 mi North - - N/A   Overcast
1:08 AM - - - N/A% - 18.0 mi North - - N/A   Overcast
2:35 AM - - - N/A% - 10.0 mi North - - N/A   Overcast
3:00 AM 35.6 °F 28.6 °F 19.4 °F 52% 30.16 in 10.0 mi North 9.2 mph - N/A   Overcast
3:02 AM 35.6 °F 28.6 °F 19.4 °F 52% 30.16 in 10.0 mi North 9.2 mph - N/A   Overcast
3:03 AM 35.6 °F 28.6 °F 19.4 °F 52% 30.16 in 10.0 mi North 9.2 mph - N/A   Overcast
3:30 AM 32.0 °F - 19.4 °F 60% 30.17 in 10.0 mi North - - N/A   Mostly Cloudy
4:00 AM 32.0 °F - 21.2 °F 64% 30.19 in 10.0 mi Calm Calm - N/A   Mostly Cloudy
4:35 AM 33.8 °F - 19.4 °F 56% 30.21 in - Calm Calm - N/A   Overcast
4:53 AM 32.0 °F - 21.2 °F 64% 30.19 in 10.0 mi Calm Calm - N/A   Mostly Cloudy
4:55 AM 32.0 °F - 21.2 °F 64% 30.19 in 10.0 mi Calm Calm - N/A   Mostly Cloudy
5:10 AM 33.8 °F - 19.4 °F 56% 30.23 in 10.0 mi Calm Calm - N/A   Overcast
5:55 AM - - - N/A% - 10.0 mi Calm Calm - N/A   Unknown
6:43 AM 33.8 °F - 23.0 °F 65% - 10.0 mi Calm Calm - N/A   Overcast
6:44 AM 33.8 °F - 23.0 °F 65% - 10.0 mi Calm Calm - N/A   Overcast
6:55 AM 35.6 °F - 23.0 °F 60% 30.24 in - Calm Calm - N/A   Overcast
7:15 AM 35.6 °F - 24.8 °F 65% 30.24 in 10.0 mi North - - N/A   Overcast
7:55 AM - - - N/A% - 10.0 mi North - - N/A   Overcast
8:15 AM 37.4 °F - -121.0 °F 4% 30.25 in - Calm Calm - N/A   Overcast
8:30 AM 37.4 °F - 24.8 °F 60% 30.26 in - Calm Calm - N/A   Overcast
8:55 AM 39.2 °F - 24.8 °F 56% 30.27 in - Calm Calm - N/A   Overcast
9:21 AM 39.2 °F 33.0 °F 26.6 °F 61% 30.27 in 10.0 mi North 9.2 mph - N/A   Overcast
9:22 AM 39.2 °F 33.0 °F 26.6 °F 61% 30.27 in 10.0 mi North 9.2 mph - N/A   Overcast
9:35 AM 41.0 °F - -121.0 °F 4% 30.27 in - Calm Calm - N/A   Overcast
9:55 AM 41.0 °F - 23.0 °F 49% 30.27 in - Calm Calm - N/A   Mostly Cloudy
10:15 AM 42.8 °F - -119.2 °F 4% 30.27 in - Calm Calm - N/A   Mostly Cloudy
10:42 AM 44.6 °F - 24.8 °F 46% - 10.0 mi Calm Calm - N/A   Mostly Cloudy
10:43 AM 44.6 °F - 24.8 °F 46% - 10.0 mi Calm Calm - N/A   Mostly Cloudy
10:44 AM 44.6 °F - 24.8 °F 46% - 10.0 mi Calm Calm - N/A   Mostly Cloudy
11:00 AM 44.6 °F - 24.8 °F 46% - 10.0 mi Calm Calm - N/A   Overcast
11:01 AM 44.6 °F - 24.8 °F 46% - 10.0 mi Calm Calm - N/A   Overcast
11:02 AM 44.6 °F - 24.8 °F 46% - 10.0 mi Calm Calm - N/A   Overcast
11:18 AM - - - N/A% - 10.0 mi North - - N/A   Overcast
11:38 AM - - - N/A% - 18.0 mi North - - N/A   Unknown
12:00 PM 48.2 °F - 26.6 °F 43% 30.25 in 10.0 mi Calm Calm - N/A   Overcast
12:05 PM 48.2 °F - 26.6 °F 43% 30.25 in 10.0 mi Calm Calm - N/A   Overcast
12:07 PM 48.2 °F - 26.6 °F 43% 30.25 in 10.0 mi Calm Calm - N/A   Overcast
12:15 PM 50.0 °F - 26.6 °F 40% 30.25 in - SW 3.5 mph - N/A   Overcast
12:41 PM 50.0 °F - 26.6 °F 40% 30.24 in 10.0 mi SW 4.6 mph - N/A   Overcast
12:42 PM 50.0 °F - 26.6 °F 40% 30.24 in 10.0 mi SW 4.6 mph - N/A   Overcast
1:00 PM 64.4 °F - 26.6 °F 24% 30.23 in 10.0 mi North 9.2 mph - N/A   Mostly Cloudy
1:03 PM 64.4 °F - 26.6 °F 24% 30.23 in 10.0 mi North 9.2 mph - N/A   Mostly Cloudy
1:04 PM 64.4 °F - 26.6 °F 24% 30.23 in 10.0 mi North 9.2 mph - N/A   Mostly Cloudy
1:38 PM - - - N/A% - 18.0 mi North - - N/A   Partly Cloudy
1:55 PM 55.4 °F - 28.4 °F 36% 30.18 in 10.0 mi North - - N/A   Partly Cloudy
2:21 PM 55.4 °F - 28.4 °F 36% 30.17 in 10.0 mi South 4.6 mph - N/A   Partly Cloudy
2:22 PM 55.4 °F - 28.4 °F 36% 30.17 in 10.0 mi South 4.6 mph - N/A   Partly Cloudy
2:23 PM 55.4 °F - 28.4 °F 36% 30.17 in 10.0 mi South 4.6 mph - N/A   Partly Cloudy
2:24 PM 55.4 °F - 28.4 °F 36% 30.17 in 10.0 mi South 4.6 mph - N/A   Partly Cloudy
2:42 PM 57.2 °F - 28.4 °F 33% 30.17 in 10.0 mi SW 5.8 mph - N/A   Clear
2:44 PM 57.2 °F - 28.4 °F 33% 30.17 in 10.0 mi SW 5.8 mph - N/A   Clear
2:50 PM 57.2 °F - 30.2 °F 36% 30.16 in 10.0 mi North - - N/A   Partly Cloudy
3:15 PM 59.0 °F - 32.0 °F 36% 30.16 in 10.0 mi SW 8.1 mph - N/A   Partly Cloudy
3:35 PM 59.0 °F - 32.0 °F 36% - - SSW 8.1 mph 16.1 mph N/A   Clear
3:55 PM - - - N/A% 30.15 in 10.0 mi WSW 8.1 mph - N/A   Clear
4:20 PM 57.2 °F - 32.0 °F 38% - - Calm Calm - N/A   Partly Cloudy
4:41 PM 57.2 °F - 32.0 °F 38% 30.16 in 10.0 mi West 6.9 mph - N/A   Mostly Cloudy
4:42 PM 57.2 °F - 32.0 °F 38% 30.16 in 10.0 mi West 6.9 mph - N/A   Mostly Cloudy
4:50 PM 57.2 °F - 32.0 °F 38% - - WSW 10.4 mph - N/A   Overcast
5:15 PM 57.2 °F - 33.8 °F 41% - - SW 9.2 mph - N/A   Overcast
6:40 PM 53.6 °F - 33.8 °F 47% - 10.0 mi North 9.2 mph - N/A   Mostly Cloudy
6:42 PM 53.6 °F - 33.8 °F 47% - 10.0 mi North 9.2 mph - N/A   Mostly Cloudy
6:55 PM 50.0 °F - 35.6 °F 58% 30.17 in - Calm Calm - N/A   Mostly Cloudy
7:08 PM 48.2 °F - 35.6 °F 62% 30.17 in 10.0 mi North - - N/A   Mostly Cloudy
7:30 PM 46.4 °F - 35.6 °F 66% - - Calm Calm - N/A   Partly Cloudy
7:55 PM 46.4 °F - 33.8 °F 62% 30.20 in 10.0 mi North - - N/A   Scattered Clouds
8:10 PM - - - N/A% 30.28 in 10.0 mi North - - N/A   Mostly Cloudy
8:35 PM 48.2 °F - 33.8 °F 58% 30.20 in - Calm Calm - N/A   Mostly Cloudy
9:00 PM - - - N/A% - 10.0 mi Calm Calm - N/A   Scattered Clouds
9:04 PM - - - N/A% - 10.0 mi Calm Calm - N/A   Scattered Clouds
9:06 PM - - - N/A% - 10.0 mi Calm Calm - N/A   Scattered Clouds
9:10 PM - - - N/A% 30.20 in 10.0 mi North - - N/A   Partly Cloudy
10:00 PM - - - N/A% - 10.0 mi Calm Calm - N/A   Mostly Cloudy
10:02 PM - - - N/A% - 10.0 mi Calm Calm - N/A   Mostly Cloudy
10:03 PM - - - N/A% - 10.0 mi Calm Calm - N/A   Mostly Cloudy
10:18 PM 39.2 °F - 33.8 °F 81% 30.21 in 10.0 mi North - - N/A   Mostly Cloudy
10:55 PM 37.4 °F - 32.0 °F 81% - - Calm Calm - N/A   Overcast
11:30 PM 37.4 °F - 32.0 °F 81% 30.21 in 10.0 mi Calm Calm - N/A   Overcast
11:50 PM 35.6 °F - 32.0 °F 87% - - Calm Calm - N/A   Overcast